Time,TemperatureF,DewpointF,PressureIn,WindDirection,WindDirectionDegrees,WindSpeedMPH,WindSpeedGustMPH,Humidity,HourlyPrecipIn,Conditions,Clouds,dailyrainin,SoftwareType,DateUTC
2013-01-05 00:02:00,27.9,13.8,30.19,WSW,258,3.0,18.0,55,0.00,,,0.00,meteohub,2013-01-05 05:02:00,
2013-01-05 00:07:00,27.9,13.8,30.19,SW,235,5.0,18.0,55,0.00,,,0.00,meteohub,2013-01-05 05:07:00,
2013-01-05 00:12:00,27.9,13.8,30.19,NW,325,13.0,13.0,55,0.00,,,0.00,meteohub,2013-01-05 05:12:00,
2013-01-05 00:17:00,27.9,13.8,30.19,SSE,168,7.0,21.0,55,0.00,,,0.00,meteohub,2013-01-05 05:17:00,
2013-01-05 00:22:00,27.7,13.6,30.19,SSW,212,9.0,21.0,55,0.00,,,0.00,meteohub,2013-01-05 05:22:00,
2013-01-05 00:27:00,27.7,13.6,30.16,South,190,8.0,21.0,55,0.00,,,0.00,meteohub,2013-01-05 05:27:00,
2013-01-05 00:32:00,27.7,13.6,30.16,SSW,212,5.0,19.0,55,0.00,,,0.00,meteohub,2013-01-05 05:32:00,
2013-01-05 00:37:00,27.7,13.6,30.16,SW,235,12.0,16.0,55,0.00,,,0.00,meteohub,2013-01-05 05:37:00,
2013-01-05 00:42:00,27.7,13.6,30.16,SSE,168,8.0,15.0,55,0.00,,,0.00,meteohub,2013-01-05 05:42:00,
2013-01-05 00:47:00,27.5,13.5,30.16,SSW,212,11.0,15.0,55,0.00,,,0.00,meteohub,2013-01-05 05:47:00,
2013-01-05 00:52:00,27.7,13.6,30.16,SSW,212,8.0,17.0,55,0.00,,,0.00,meteohub,2013-01-05 05:52:00,
2013-01-05 00:57:00,27.7,13.6,30.16,SSE,168,5.0,17.0,55,0.00,,,0.00,meteohub,2013-01-05 05:57:00,
2013-01-05 01:02:00,27.5,13.5,30.16,NNE,32,7.0,20.0,55,0.00,,,0.00,meteohub,2013-01-05 06:02:00,
2013-01-05 01:07:00,27.5,13.5,30.16,SSW,212,2.0,20.0,55,0.00,,,0.00,meteohub,2013-01-05 06:07:00,
2013-01-05 01:12:00,27.5,13.5,30.16,SW,235,5.0,13.0,55,0.00,,,0.00,meteohub,2013-01-05 06:12:00,
2013-01-05 01:17:00,27.5,13.8,30.16,West,280,17.0,17.0,56,0.00,,,0.00,meteohub,2013-01-05 06:17:00,
2013-01-05 01:22:00,27.5,13.8,30.16,SSE,168,4.0,17.0,56,0.00,,,0.00,meteohub,2013-01-05 06:22:00,
2013-01-05 01:27:00,27.5,13.8,30.16,WSW,258,20.0,20.0,56,0.00,,,0.00,meteohub,2013-01-05 06:27:00,
2013-01-05 01:32:00,27.5,13.8,30.16,SSE,168,9.0,20.0,56,0.00,,,0.00,meteohub,2013-01-05 06:32:00,
2013-01-05 01:37:00,27.5,13.8,30.16,WNW,302,16.0,20.0,56,0.00,,,0.00,meteohub,2013-01-05 06:37:00,
2013-01-05 01:42:00,27.5,13.8,30.19,West,280,14.0,20.0,56,0.00,,,0.00,meteohub,2013-01-05 06:42:00,
2013-01-05 01:47:00,27.7,14.0,30.19,WSW,258,12.0,21.0,56,0.00,,,0.00,meteohub,2013-01-05 06:47:00,
2013-01-05 01:52:00,27.5,13.8,30.19,SSW,212,9.0,24.0,56,0.00,,,0.00,meteohub,2013-01-05 06:52:00,
2013-01-05 01:57:00,27.3,13.6,30.19,North,10,5.0,24.0,56,0.00,,,0.00,meteohub,2013-01-05 06:57:00,
2013-01-05 02:07:00,27.3,13.6,30.19,NW,325,12.0,19.0,56,0.00,,,0.00,meteohub,2013-01-05 07:07:00,
2013-01-05 02:17:00,27.3,13.6,30.22,WSW,258,12.0,17.0,56,0.00,,,0.00,meteohub,2013-01-05 07:17:00,
2013-01-05 02:22:00,27.3,13.6,30.22,SSW,212,5.0,17.0,56,0.00,,,0.00,meteohub,2013-01-05 07:22:00,
2013-01-05 02:27:00,27.3,13.6,30.19,South,190,4.0,15.0,56,0.00,,,0.00,meteohub,2013-01-05 07:27:00,
2013-01-05 02:32:00,27.1,13.6,30.19,SSW,212,4.0,14.0,56,0.00,,,0.00,meteohub,2013-01-05 07:32:00,
2013-01-05 02:37:00,27.1,13.6,30.19,SSE,168,3.0,14.0,56,0.00,,,0.00,meteohub,2013-01-05 07:37:00,
2013-01-05 02:42:00,27.0,13.5,30.22,SSE,168,9.0,15.0,56,0.00,,,0.00,meteohub,2013-01-05 07:42:00,
2013-01-05 02:47:00,27.1,13.6,30.22,West,280,8.0,15.0,56,0.00,,,0.00,meteohub,2013-01-05 07:47:00,
2013-01-05 02:52:00,27.1,13.6,30.22,West,280,6.0,16.0,56,0.00,,,0.00,meteohub,2013-01-05 07:52:00,
2013-01-05 02:57:00,27.0,13.8,30.22,North,10,6.0,16.0,57,0.00,,,0.00,meteohub,2013-01-05 07:57:00,
2013-01-05 03:02:00,27.1,14.0,30.22,WNW,302,12.0,17.0,57,0.00,,,0.00,meteohub,2013-01-05 08:02:00,
2013-01-05 03:07:00,27.3,14.2,30.22,South,190,7.0,17.0,57,0.00,,,0.00,meteohub,2013-01-05 08:07:00,
2013-01-05 03:12:00,27.1,14.0,30.22,NNE,32,8.0,17.0,57,0.00,,,0.00,meteohub,2013-01-05 08:12:00,
2013-01-05 03:17:00,27.1,14.0,30.22,SSW,212,13.0,16.0,57,0.00,,,0.00,meteohub,2013-01-05 08:17:00,
2013-01-05 03:22:00,27.1,14.0,30.22,SW,235,8.0,17.0,57,0.00,,,0.00,meteohub,2013-01-05 08:22:00,
2013-01-05 03:27:00,27.1,14.0,30.22,NE,55,7.0,18.0,57,0.00,,,0.00,meteohub,2013-01-05 08:27:00,
2013-01-05 03:32:00,27.1,14.0,30.22,North,10,6.0,22.0,57,0.00,,,0.00,meteohub,2013-01-05 08:32:00,
2013-01-05 03:37:00,27.1,14.0,30.22,WNW,302,8.0,22.0,57,0.00,,,0.00,meteohub,2013-01-05 08:37:00,
2013-01-05 03:42:00,27.0,13.8,30.22,SE,145,5.0,15.0,57,0.00,,,0.00,meteohub,2013-01-05 08:42:00,
2013-01-05 03:47:00,27.0,13.8,30.22,SSW,212,20.0,20.0,57,0.00,,,0.00,meteohub,2013-01-05 08:47:00,
2013-01-05 03:52:00,26.8,14.0,30.22,WSW,258,26.0,26.0,58,0.00,,,0.00,meteohub,2013-01-05 08:52:00,
2013-01-05 03:57:00,26.8,14.0,30.22,WNW,302,12.0,31.0,58,0.00,,,0.00,meteohub,2013-01-05 08:57:00,
2013-01-05 04:02:00,26.6,14.2,30.22,NW,325,10.0,31.0,59,0.00,,,0.00,meteohub,2013-01-05 09:02:00,
2013-01-05 04:07:00,26.6,14.2,30.22,South,190,11.0,31.0,59,0.00,,,0.00,meteohub,2013-01-05 09:07:00,
2013-01-05 04:12:00,27.0,14.2,30.22,NNW,348,11.0,26.0,58,0.00,,,0.00,meteohub,2013-01-05 09:12:00,
2013-01-05 04:17:00,27.0,14.2,30.22,WNW,302,12.0,25.0,58,0.00,,,0.00,meteohub,2013-01-05 09:17:00,
2013-01-05 04:22:00,27.0,14.2,30.22,SSW,212,6.0,25.0,58,0.00,,,0.00,meteohub,2013-01-05 09:22:00,
2013-01-05 04:27:00,27.0,14.2,30.22,SW,235,9.0,25.0,58,0.00,,,0.00,meteohub,2013-01-05 09:27:00,
2013-01-05 04:32:00,27.0,14.2,30.22,WNW,302,15.0,22.0,58,0.00,,,0.00,meteohub,2013-01-05 09:32:00,
2013-01-05 04:37:00,27.1,14.4,30.22,SSE,168,4.0,17.0,58,0.00,,,0.00,meteohub,2013-01-05 09:37:00,
2013-01-05 04:42:00,27.0,14.2,30.22,ENE,78,9.0,15.0,58,0.00,,,0.00,meteohub,2013-01-05 09:42:00,
2013-01-05 04:47:00,27.0,14.2,30.22,South,190,12.0,15.0,58,0.00,,,0.00,meteohub,2013-01-05 09:47:00,
2013-01-05 04:52:00,27.0,14.2,30.22,WNW,302,11.0,14.0,58,0.00,,,0.00,meteohub,2013-01-05 09:52:00,
2013-01-05 04:57:00,27.0,14.2,30.22,WSW,258,9.0,14.0,58,0.00,,,0.00,meteohub,2013-01-05 09:57:00,
2013-01-05 05:02:00,27.1,14.4,30.22,SW,235,12.0,12.0,58,0.00,,,0.00,meteohub,2013-01-05 10:02:00,
2013-01-05 05:07:00,27.1,14.4,30.22,ESE,122,3.0,21.0,58,0.00,,,0.00,meteohub,2013-01-05 10:07:00,
2013-01-05 05:12:00,27.1,14.4,30.22,South,190,13.0,21.0,58,0.00,,,0.00,meteohub,2013-01-05 10:12:00,
2013-01-05 05:17:00,27.1,14.4,30.22,NNW,348,12.0,21.0,58,0.00,,,0.00,meteohub,2013-01-05 10:17:00,
2013-01-05 05:22:00,27.3,14.5,30.22,ESE,122,6.0,30.0,58,0.00,,,0.00,meteohub,2013-01-05 10:22:00,
2013-01-05 05:27:00,27.3,14.5,30.22,NNE,32,8.0,30.0,58,0.00,,,0.00,meteohub,2013-01-05 10:27:00,
2013-01-05 05:32:00,27.3,14.5,30.22,NNE,32,0.0,18.0,58,0.00,,,0.00,meteohub,2013-01-05 10:32:00,
2013-01-05 05:37:00,27.3,14.2,30.22,South,190,5.0,15.0,57,0.00,,,0.00,meteohub,2013-01-05 10:37:00,
2013-01-05 05:42:00,27.1,14.0,30.19,SSE,168,5.0,15.0,57,0.00,,,0.00,meteohub,2013-01-05 10:42:00,
2013-01-05 05:47:00,26.6,13.8,30.19,ESE,122,5.0,7.0,58,0.00,,,0.00,meteohub,2013-01-05 10:47:00,
2013-01-05 05:52:00,26.6,13.8,30.19,South,190,5.0,8.0,58,0.00,,,0.00,meteohub,2013-01-05 10:52:00,
2013-01-05 05:57:00,26.6,13.8,30.22,West,280,0.0,8.0,58,0.00,,,0.00,meteohub,2013-01-05 10:57:00,
2013-01-05 06:02:00,26.2,13.5,30.22,SSE,168,6.0,6.0,58,0.00,,,0.00,meteohub,2013-01-05 11:02:00,
2013-01-05 06:07:00,26.2,13.8,30.22,SSE,168,4.0,8.0,59,0.00,,,0.00,meteohub,2013-01-05 11:07:00,
2013-01-05 06:12:00,26.1,13.6,30.22,South,190,3.0,8.0,59,0.00,,,0.00,meteohub,2013-01-05 11:12:00,
2013-01-05 06:17:00,25.9,13.5,30.22,SE,145,0.0,8.0,59,0.00,,,0.00,meteohub,2013-01-05 11:17:00,
2013-01-05 06:22:00,25.7,13.5,30.22,SE,145,4.0,8.0,59,0.00,,,0.00,meteohub,2013-01-05 11:22:00,
2013-01-05 06:27:00,25.7,13.5,30.22,SSE,168,3.0,8.0,59,0.00,,,0.00,meteohub,2013-01-05 11:27:00,
2013-01-05 06:32:00,25.5,13.3,30.22,SE,145,3.0,8.0,59,0.00,,,0.00,meteohub,2013-01-05 11:32:00,
2013-01-05 06:37:00,25.5,13.3,30.22,SSE,168,4.0,5.0,59,0.00,,,0.00,meteohub,2013-01-05 11:37:00,
2013-01-05 06:42:00,25.3,13.5,30.19,SE,145,4.0,5.0,60,0.00,,,0.00,meteohub,2013-01-05 11:42:00,
2013-01-05 06:47:00,25.3,13.5,30.19,WNW,302,0.0,5.0,60,0.00,,,0.00,meteohub,2013-01-05 11:47:00,
2013-01-05 06:52:00,25.3,13.5,30.19,East,100,0.0,5.0,60,0.00,,,0.00,meteohub,2013-01-05 11:52:00,
2013-01-05 06:57:00,25.0,13.1,30.22,South,190,3.0,5.0,60,0.00,,,0.00,meteohub,2013-01-05 11:57:00,
2013-01-05 07:02:00,25.0,13.1,30.22,ESE,122,4.0,5.0,60,0.00,,,0.00,meteohub,2013-01-05 12:02:00,
2013-01-05 07:07:00,24.8,12.9,30.22,ESE,122,4.0,5.0,60,0.00,,,0.00,meteohub,2013-01-05 12:07:00,
2013-01-05 07:12:00,24.8,12.9,30.22,SSW,212,0.0,5.0,60,0.00,,,0.00,meteohub,2013-01-05 12:12:00,
2013-01-05 07:17:00,24.8,12.9,30.22,ESE,122,0.0,5.0,60,0.00,,,0.00,meteohub,2013-01-05 12:17:00,
2013-01-05 07:22:00,24.4,12.6,30.22,NE,55,2.0,5.0,60,0.00,,,0.00,meteohub,2013-01-05 12:22:00,
2013-01-05 07:27:00,24.4,12.9,30.22,SSW,212,4.0,4.0,61,0.00,,,0.00,meteohub,2013-01-05 12:27:00,
2013-01-05 07:32:00,24.4,12.9,30.22,South,190,5.0,6.0,61,0.00,,,0.00,meteohub,2013-01-05 12:32:00,
2013-01-05 07:37:00,24.1,12.6,30.22,SSW,212,5.0,6.0,61,0.00,,,0.00,meteohub,2013-01-05 12:37:00,
2013-01-05 07:42:00,24.1,12.6,30.19,SSE,168,4.0,7.0,61,0.00,,,0.00,meteohub,2013-01-05 12:42:00,
2013-01-05 07:47:00,24.1,12.6,30.19,ESE,122,3.0,7.0,61,0.00,,,0.00,meteohub,2013-01-05 12:47:00,
2013-01-05 07:52:00,24.1,12.6,30.19,ESE,122,3.0,7.0,61,0.00,,,0.00,meteohub,2013-01-05 12:52:00,
2013-01-05 07:57:00,24.4,13.3,30.22,SSE,168,4.0,5.0,62,0.00,,,0.00,meteohub,2013-01-05 12:57:00,
2013-01-05 08:02:00,24.4,13.3,30.22,SSE,168,4.0,5.0,62,0.00,,,0.00,meteohub,2013-01-05 13:02:00,
2013-01-05 08:07:00,24.4,13.3,30.22,SSE,168,3.0,6.0,62,0.00,,,0.00,meteohub,2013-01-05 13:07:00,
2013-01-05 08:12:00,23.7,12.2,30.22,NNE,32,0.0,6.0,61,0.00,,,0.00,meteohub,2013-01-05 13:12:00,
2013-01-05 08:17:00,23.7,12.2,30.22,SSW,212,2.0,6.0,61,0.00,,,0.00,meteohub,2013-01-05 13:17:00,
2013-01-05 08:22:00,23.5,12.4,30.22,SSW,212,0.0,4.0,62,0.00,,,0.00,meteohub,2013-01-05 13:22:00,
2013-01-05 08:27:00,23.4,11.8,30.19,WNW,302,2.0,3.0,61,0.00,,,0.00,meteohub,2013-01-05 13:27:00,
2013-01-05 08:32:00,23.4,12.2,30.19,South,190,0.0,4.0,62,0.00,,,0.00,meteohub,2013-01-05 13:32:00,
2013-01-05 08:37:00,23.4,12.2,30.19,NNE,32,0.0,4.0,62,0.00,,,0.00,meteohub,2013-01-05 13:37:00,
2013-01-05 08:42:00,23.4,12.2,30.22,ENE,78,0.0,4.0,62,0.00,,,0.00,meteohub,2013-01-05 13:42:00,
2013-01-05 08:47:00,23.2,12.2,30.22,ESE,122,0.0,4.0,62,0.00,,,0.00,meteohub,2013-01-05 13:47:00,
2013-01-05 08:52:00,23.4,12.2,30.22,SSE,168,3.0,3.0,62,0.00,,,0.00,meteohub,2013-01-05 13:52:00,
2013-01-05 08:57:00,23.2,12.2,30.22,WNW,302,0.0,4.0,62,0.00,,,0.00,meteohub,2013-01-05 13:57:00,
2013-01-05 09:02:00,23.4,12.2,30.22,SSW,212,0.0,4.0,62,0.00,,,0.00,meteohub,2013-01-05 14:02:00,
2013-01-05 09:07:00,23.5,12.4,30.22,WSW,258,0.0,4.0,62,0.00,,,0.00,meteohub,2013-01-05 14:07:00,
2013-01-05 09:12:00,23.5,12.4,30.22,South,190,0.0,4.0,62,0.00,,,0.00,meteohub,2013-01-05 14:12:00,
2013-01-05 09:17:00,23.9,13.1,30.22,SSE,168,0.0,4.0,63,0.00,,,0.00,meteohub,2013-01-05 14:17:00,
2013-01-05 09:22:00,24.3,13.5,30.22,ENE,78,0.0,0.0,63,0.00,,,0.00,meteohub,2013-01-05 14:22:00,
2013-01-05 09:27:00,24.1,13.3,30.22,ENE,78,0.0,0.0,63,0.00,,,0.00,meteohub,2013-01-05 14:27:00,
2013-01-05 09:32:00,24.4,13.6,30.22,ENE,78,0.0,0.0,63,0.00,,,0.00,meteohub,2013-01-05 14:32:00,
2013-01-05 09:37:00,24.6,13.8,30.22,ENE,78,0.0,3.0,63,0.00,,,0.00,meteohub,2013-01-05 14:37:00,
2013-01-05 09:42:00,25.0,14.2,30.25,ENE,78,0.0,3.0,63,0.00,,,0.00,meteohub,2013-01-05 14:42:00,
2013-01-05 09:47:00,25.3,14.5,30.25,East,100,2.0,3.0,63,0.00,,,0.00,meteohub,2013-01-05 14:47:00,
2013-01-05 09:52:00,25.7,14.9,30.25,West,280,0.0,3.0,63,0.00,,,0.00,meteohub,2013-01-05 14:52:00,
2013-01-05 09:57:00,26.2,15.4,30.25,South,190,4.0,4.0,63,0.00,,,0.00,meteohub,2013-01-05 14:57:00,
2013-01-05 10:02:00,27.0,16.0,30.25,South,190,0.0,4.0,63,0.00,,,0.00,meteohub,2013-01-05 15:02:00,
2013-01-05 10:07:00,27.9,16.9,30.25,South,190,0.0,4.0,63,0.00,,,0.00,meteohub,2013-01-05 15:07:00,
2013-01-05 10:12:00,28.4,17.1,30.28,NE,55,0.0,4.0,62,0.00,,,0.00,meteohub,2013-01-05 15:12:00,
2013-01-05 10:17:00,28.2,16.2,30.28,South,190,4.0,4.0,60,0.00,,,0.00,meteohub,2013-01-05 15:17:00,
2013-01-05 10:22:00,28.8,16.3,30.28,South,190,6.0,6.0,59,0.00,,,0.00,meteohub,2013-01-05 15:22:00,
2013-01-05 10:32:00,29.5,16.2,30.28,WNW,302,2.0,13.0,57,0.00,,,0.00,meteohub,2013-01-05 15:32:00,
2013-01-05 10:37:00,30.0,16.7,30.28,WSW,258,0.0,13.0,57,0.00,,,0.00,meteohub,2013-01-05 15:37:00,
2013-01-05 10:42:00,30.4,16.5,30.28,West,280,5.0,12.0,56,0.00,,,0.00,meteohub,2013-01-05 15:42:00,
2013-01-05 10:47:00,30.9,17.1,30.28,NNW,348,6.0,12.0,56,0.00,,,0.00,meteohub,2013-01-05 15:47:00,
2013-01-05 10:52:00,31.3,17.4,30.28,WNW,302,2.0,8.0,56,0.00,,,0.00,meteohub,2013-01-05 15:52:00,
2013-01-05 10:57:00,31.5,17.2,30.25,South,190,2.0,11.0,55,0.00,,,0.00,meteohub,2013-01-05 15:57:00,
2013-01-05 11:02:00,32.0,17.2,30.25,West,280,5.0,11.0,54,0.00,,,0.00,meteohub,2013-01-05 16:02:00,
2013-01-05 11:07:00,32.4,17.6,30.25,NW,325,8.0,12.0,54,0.00,,,0.00,meteohub,2013-01-05 16:07:00,
2013-01-05 11:12:00,32.4,17.2,30.22,WSW,258,4.0,12.0,53,0.00,,,0.00,meteohub,2013-01-05 16:12:00,
2013-01-05 11:17:00,32.7,17.6,30.22,NNE,32,2.0,11.0,53,0.00,,,0.00,meteohub,2013-01-05 16:17:00,
2013-01-05 11:22:00,32.9,17.8,30.22,North,10,7.0,9.0,53,0.00,,,0.00,meteohub,2013-01-05 16:22:00,
2013-01-05 11:27:00,33.3,17.6,30.19,SW,235,8.0,11.0,52,0.00,,,0.00,meteohub,2013-01-05 16:27:00,
2013-01-05 11:32:00,33.6,17.4,30.19,WSW,258,2.0,11.0,51,0.00,,,0.00,meteohub,2013-01-05 16:32:00,
2013-01-05 11:42:00,34.2,18.0,30.22,SSW,212,5.0,11.0,51,0.00,,,0.00,meteohub,2013-01-05 16:42:00,
2013-01-05 11:47:00,34.5,18.3,30.22,North,10,4.0,10.0,51,0.00,,,0.00,meteohub,2013-01-05 16:47:00,
2013-01-05 11:52:00,34.9,18.1,30.22,South,190,0.0,10.0,50,0.00,,,0.00,meteohub,2013-01-05 16:52:00,
2013-01-05 11:57:00,35.2,18.5,30.22,NW,325,2.0,8.0,50,0.00,,,0.00,meteohub,2013-01-05 16:57:00,
2013-01-05 12:02:00,35.4,18.1,30.22,NW,325,11.0,11.0,49,0.00,,,0.00,meteohub,2013-01-05 17:02:00,
2013-01-05 12:07:00,35.4,18.1,30.22,SE,145,0.0,9.0,49,0.00,,,0.00,meteohub,2013-01-05 17:07:00,
2013-01-05 12:12:00,35.6,18.0,30.19,North,10,5.0,11.0,48,0.00,,,0.00,meteohub,2013-01-05 17:12:00,
2013-01-05 12:17:00,35.8,18.1,30.19,NW,325,5.0,11.0,48,0.00,,,0.00,meteohub,2013-01-05 17:17:00,
2013-01-05 12:22:00,36.1,18.0,30.19,West,280,2.0,8.0,47,0.00,,,0.00,meteohub,2013-01-05 17:22:00,
2013-01-05 12:27:00,36.3,18.1,30.19,NNW,348,6.0,8.0,47,0.00,,,0.00,meteohub,2013-01-05 17:27:00,
2013-01-05 12:32:00,36.5,18.3,30.19,WNW,302,5.0,8.0,47,0.00,,,0.00,meteohub,2013-01-05 17:32:00,
2013-01-05 12:37:00,36.7,18.0,30.19,NW,325,3.0,8.0,46,0.00,,,0.00,meteohub,2013-01-05 17:37:00,
2013-01-05 12:42:00,36.7,17.4,30.19,North,10,5.0,8.0,45,0.04,,,0.04,meteohub,2013-01-05 17:42:00,
2013-01-05 12:47:00,37.2,18.0,30.19,SSW,212,5.0,7.0,45,0.04,,,0.04,meteohub,2013-01-05 17:47:00,
2013-01-05 12:52:00,37.4,18.1,30.19,WNW,302,5.0,5.0,45,0.04,,,0.04,meteohub,2013-01-05 17:52:00,
2013-01-05 12:57:00,37.4,17.6,30.16,North,10,4.0,8.0,44,0.04,,,0.04,meteohub,2013-01-05 17:57:00,
2013-01-05 13:02:00,37.8,17.8,30.16,NW,325,3.0,9.0,44,0.04,,,0.04,meteohub,2013-01-05 18:02:00,
2013-01-05 13:07:00,38.1,18.1,30.16,West,280,2.0,9.0,44,0.04,,,0.04,meteohub,2013-01-05 18:07:00,
2013-01-05 13:12:00,38.5,18.5,30.16,West,280,6.0,6.0,44,0.04,,,0.04,meteohub,2013-01-05 18:12:00,
2013-01-05 13:17:00,38.7,18.1,30.16,NW,325,2.0,6.0,43,0.04,,,0.04,meteohub,2013-01-05 18:17:00,
2013-01-05 13:22:00,38.7,18.1,30.16,NNW,348,7.0,8.0,43,0.04,,,0.04,meteohub,2013-01-05 18:22:00,
2013-01-05 13:27:00,38.8,18.3,30.16,NW,325,7.0,8.0,43,0.04,,,0.04,meteohub,2013-01-05 18:27:00,
2013-01-05 13:32:00,39.0,18.5,30.16,WNW,302,3.0,9.0,43,0.04,,,0.04,meteohub,2013-01-05 18:32:00,
2013-01-05 13:37:00,39.2,18.1,30.16,WNW,302,4.0,9.0,42,0.00,,,0.04,meteohub,2013-01-05 18:37:00,
2013-01-05 13:42:00,39.4,18.3,30.16,WNW,302,3.0,9.0,42,0.00,,,0.04,meteohub,2013-01-05 18:42:00,
2013-01-05 13:47:00,39.4,18.3,30.16,NNW,348,4.0,7.0,42,0.00,,,0.04,meteohub,2013-01-05 18:47:00,
2013-01-05 13:52:00,39.4,18.3,30.16,WNW,302,7.0,8.0,42,0.00,,,0.04,meteohub,2013-01-05 18:52:00,
2013-01-05 13:57:00,39.7,18.0,30.16,WSW,258,4.0,8.0,41,0.00,,,0.04,meteohub,2013-01-05 18:57:00,
2013-01-05 14:02:00,39.9,18.1,30.16,NW,325,6.0,8.0,41,0.00,,,0.04,meteohub,2013-01-05 19:02:00,
2013-01-05 14:07:00,39.9,18.1,30.16,WNW,302,6.0,7.0,41,0.00,,,0.04,meteohub,2013-01-05 19:07:00,
2013-01-05 14:12:00,40.1,18.3,30.16,NW,325,6.0,9.0,41,0.00,,,0.04,meteohub,2013-01-05 19:12:00,
2013-01-05 14:17:00,40.3,18.5,30.16,WNW,302,3.0,9.0,41,0.00,,,0.04,meteohub,2013-01-05 19:17:00,
2013-01-05 14:22:00,40.3,18.5,30.16,NW,325,6.0,9.0,41,0.00,,,0.04,meteohub,2013-01-05 19:22:00,
2013-01-05 14:27:00,40.5,18.7,30.16,WNW,302,5.0,8.0,41,0.00,,,0.04,meteohub,2013-01-05 19:27:00,
2013-01-05 14:32:00,40.5,18.7,30.16,NW,325,5.0,9.0,41,0.00,,,0.04,meteohub,2013-01-05 19:32:00,
2013-01-05 14:37:00,40.5,18.7,30.16,North,10,7.0,13.0,41,0.00,,,0.04,meteohub,2013-01-05 19:37:00,
2013-01-05 14:42:00,40.5,18.7,30.13,NNW,348,6.0,13.0,41,0.00,,,0.04,meteohub,2013-01-05 19:42:00,
2013-01-05 14:47:00,40.5,18.1,30.13,NW,325,9.0,13.0,40,0.00,,,0.04,meteohub,2013-01-05 19:47:00,
2013-01-05 14:52:00,40.6,18.3,30.13,NNW,348,6.0,11.0,40,0.00,,,0.04,meteohub,2013-01-05 19:52:00,
2013-01-05 14:57:00,40.6,18.3,30.16,NNW,348,8.0,10.0,40,0.00,,,0.04,meteohub,2013-01-05 19:57:00,
2013-01-05 15:02:00,40.6,18.3,30.16,NNW,348,7.0,12.0,40,0.00,,,0.04,meteohub,2013-01-05 20:02:00,
2013-01-05 15:07:00,40.6,18.3,30.16,WNW,302,4.0,12.0,40,0.00,,,0.04,meteohub,2013-01-05 20:07:00,
2013-01-05 15:12:00,40.8,18.5,30.13,NNW,348,5.0,12.0,40,0.00,,,0.04,meteohub,2013-01-05 20:12:00,
2013-01-05 15:17:00,40.6,18.3,30.13,North,10,3.0,9.0,40,0.00,,,0.04,meteohub,2013-01-05 20:17:00,
2013-01-05 15:22:00,40.6,18.9,30.13,North,10,2.0,9.0,41,0.00,,,0.04,meteohub,2013-01-05 20:22:00,
2013-01-05 15:27:00,40.6,18.9,30.13,WNW,302,4.0,9.0,41,0.00,,,0.04,meteohub,2013-01-05 20:27:00,
2013-01-05 15:32:00,40.6,18.3,30.13,WNW,302,4.0,5.0,40,0.00,,,0.04,meteohub,2013-01-05 20:32:00,
2013-01-05 15:37:00,40.8,19.0,30.13,NW,325,2.0,6.0,41,0.00,,,0.04,meteohub,2013-01-05 20:37:00,
2013-01-05 15:42:00,40.6,18.9,30.10,SSW,212,4.0,6.0,41,0.00,,,0.04,meteohub,2013-01-05 20:42:00,
2013-01-05 15:47:00,40.5,18.7,30.10,West,280,0.0,5.0,41,0.00,,,0.04,meteohub,2013-01-05 20:47:00,
2013-01-05 15:52:00,40.5,18.7,30.10,NNW,348,0.0,4.0,41,0.00,,,0.04,meteohub,2013-01-05 20:52:00,
2013-01-05 15:57:00,40.6,18.9,30.13,NW,325,4.0,4.0,41,0.00,,,0.04,meteohub,2013-01-05 20:57:00,
2013-01-05 16:02:00,40.5,18.7,30.13,NNW,348,0.0,4.0,41,0.00,,,0.04,meteohub,2013-01-05 21:02:00,
2013-01-05 16:07:00,40.5,18.7,30.13,SW,235,0.0,4.0,41,0.00,,,0.04,meteohub,2013-01-05 21:07:00,
2013-01-05 16:12:00,40.1,18.9,30.10,SSE,168,0.0,4.0,42,0.00,,,0.04,meteohub,2013-01-05 21:12:00,
2013-01-05 16:17:00,39.9,18.7,30.10,SSE,168,0.0,3.0,42,0.00,,,0.04,meteohub,2013-01-05 21:17:00,
2013-01-05 16:22:00,39.9,19.2,30.10,SSE,168,3.0,3.0,43,0.00,,,0.04,meteohub,2013-01-05 21:22:00,
2013-01-05 16:27:00,39.6,19.6,30.10,SSE,168,3.0,3.0,44,0.00,,,0.04,meteohub,2013-01-05 21:27:00,
2013-01-05 16:32:00,39.4,19.4,30.10,SSE,168,3.0,4.0,44,0.00,,,0.04,meteohub,2013-01-05 21:32:00,
2013-01-05 16:37:00,39.4,19.4,30.10,SSE,168,2.0,4.0,44,0.00,,,0.04,meteohub,2013-01-05 21:37:00,
2013-01-05 16:42:00,39.0,19.6,30.10,SE,145,3.0,4.0,45,0.00,,,0.04,meteohub,2013-01-05 21:42:00,
2013-01-05 16:47:00,39.0,19.6,30.10,SE,145,4.0,4.0,45,0.00,,,0.04,meteohub,2013-01-05 21:47:00,
2013-01-05 16:52:00,38.7,19.2,30.10,SSE,168,4.0,4.0,45,0.00,,,0.04,meteohub,2013-01-05 21:52:00,
2013-01-05 16:57:00,38.5,19.6,30.10,SE,145,3.0,5.0,46,0.00,,,0.04,meteohub,2013-01-05 21:57:00,
2013-01-05 17:02:00,38.1,19.2,30.10,SSE,168,0.0,5.0,46,0.00,,,0.04,meteohub,2013-01-05 22:02:00,
2013-01-05 17:07:00,37.9,19.0,30.10,SE,145,4.0,5.0,46,0.00,,,0.04,meteohub,2013-01-05 22:07:00,
2013-01-05 17:12:00,37.6,18.7,30.10,ESE,122,4.0,7.0,46,0.00,,,0.04,meteohub,2013-01-05 22:12:00,
2013-01-05 17:17:00,37.4,18.5,30.10,ESE,122,5.0,7.0,46,0.00,,,0.04,meteohub,2013-01-05 22:17:00,
2013-01-05 17:22:00,37.0,18.7,30.10,South,190,3.0,7.0,47,0.00,,,0.04,meteohub,2013-01-05 22:22:00,
2013-01-05 17:27:00,36.9,18.5,30.10,SSE,168,5.0,6.0,47,0.00,,,0.04,meteohub,2013-01-05 22:27:00,
2013-01-05 17:32:00,36.7,18.9,30.10,SE,145,3.0,6.0,48,0.00,,,0.04,meteohub,2013-01-05 22:32:00,
2013-01-05 17:37:00,36.7,18.9,30.10,SSE,168,5.0,5.0,48,0.00,,,0.04,meteohub,2013-01-05 22:37:00,
2013-01-05 17:42:00,36.5,18.7,30.10,SSE,168,4.0,5.0,48,0.00,,,0.04,meteohub,2013-01-05 22:42:00,
2013-01-05 17:47:00,36.5,18.7,30.10,SSE,168,3.0,5.0,48,0.00,,,0.04,meteohub,2013-01-05 22:47:00,
2013-01-05 17:52:00,36.3,18.5,30.10,ESE,122,2.0,5.0,48,0.00,,,0.04,meteohub,2013-01-05 22:52:00,
2013-01-05 17:57:00,36.1,18.3,30.10,SE,145,3.0,4.0,48,0.00,,,0.04,meteohub,2013-01-05 22:57:00,
2013-01-05 18:02:00,36.1,18.3,30.10,ESE,122,2.0,4.0,48,0.00,,,0.04,meteohub,2013-01-05 23:02:00,
2013-01-05 18:07:00,36.1,18.3,30.10,ESE,122,0.0,4.0,48,0.00,,,0.04,meteohub,2013-01-05 23:07:00,
2013-01-05 18:12:00,36.1,18.3,30.10,ESE,122,0.0,4.0,48,0.00,,,0.04,meteohub,2013-01-05 23:12:00,
2013-01-05 18:17:00,36.0,18.1,30.10,WSW,258,0.0,4.0,48,0.00,,,0.04,meteohub,2013-01-05 23:17:00,
2013-01-05 18:22:00,35.8,18.1,30.10,SSW,212,0.0,0.0,48,0.00,,,0.04,meteohub,2013-01-05 23:22:00,
2013-01-05 18:27:00,35.8,18.5,30.10,SSE,168,0.0,0.0,49,0.00,,,0.04,meteohub,2013-01-05 23:27:00,
2013-01-05 18:32:00,35.8,18.5,30.10,SSE,168,2.0,4.0,49,0.00,,,0.04,meteohub,2013-01-05 23:32:00,
2013-01-05 18:37:00,35.8,18.5,30.10,SE,145,3.0,4.0,49,0.00,,,0.04,meteohub,2013-01-05 23:37:00,
2013-01-05 18:42:00,35.6,18.3,30.10,ENE,78,2.0,4.0,49,0.00,,,0.04,meteohub,2013-01-05 23:42:00,
2013-01-05 18:47:00,35.6,18.3,30.10,ENE,78,0.0,3.0,49,0.00,,,0.04,meteohub,2013-01-05 23:47:00,
2013-01-05 18:52:00,35.4,18.7,30.10,East,100,0.0,3.0,50,0.00,,,0.04,meteohub,2013-01-05 23:52:00,
2013-01-05 18:57:00,35.4,19.2,30.10,East,100,0.0,3.0,51,0.00,,,0.04,meteohub,2013-01-05 23:57:00,
2013-01-05 19:02:00,35.4,19.6,30.10,East,100,0.0,0.0,52,0.00,,,0.04,meteohub,2013-01-06 00:02:00,
2013-01-05 19:07:00,35.4,19.6,30.10,SE,145,2.0,0.0,52,0.00,,,0.04,meteohub,2013-01-06 00:07:00,
2013-01-05 19:12:00,35.4,19.6,30.10,ESE,122,0.0,3.0,52,0.00,,,0.04,meteohub,2013-01-06 00:12:00,
2013-01-05 19:17:00,35.4,19.6,30.10,ESE,122,0.0,3.0,52,0.00,,,0.04,meteohub,2013-01-06 00:17:00,
2013-01-05 19:22:00,35.2,19.4,30.10,ESE,122,0.0,3.0,52,0.00,,,0.04,meteohub,2013-01-06 00:22:00,
2013-01-05 19:27:00,35.1,19.8,30.10,ESE,122,0.0,0.0,53,0.00,,,0.04,meteohub,2013-01-06 00:27:00,
2013-01-05 19:42:00,34.9,19.6,30.10,SE,145,0.0,0.0,53,0.00,,,0.04,meteohub,2013-01-06 00:42:00,
2013-01-05 19:47:00,34.9,19.9,30.10,South,190,0.0,0.0,54,0.00,,,0.04,meteohub,2013-01-06 00:47:00,
2013-01-05 19:52:00,34.9,19.9,30.10,SSE,168,4.0,4.0,54,0.00,,,0.04,meteohub,2013-01-06 00:52:00,
2013-01-05 19:57:00,34.9,20.5,30.10,ESE,122,3.0,4.0,55,0.00,,,0.04,meteohub,2013-01-06 00:57:00,
2013-01-05 20:02:00,34.9,19.9,30.10,North,10,4.0,4.0,54,0.00,,,0.04,meteohub,2013-01-06 01:02:00,
2013-01-05 20:07:00,34.5,20.1,30.10,ENE,78,0.0,4.0,55,0.00,,,0.04,meteohub,2013-01-06 01:07:00,
2013-01-05 20:12:00,34.7,20.3,30.10,East,100,0.0,4.0,55,0.00,,,0.04,meteohub,2013-01-06 01:12:00,
2013-01-05 20:17:00,34.9,20.5,30.10,NNW,348,0.0,4.0,55,0.00,,,0.04,meteohub,2013-01-06 01:17:00,
2013-01-05 20:22:00,34.7,20.3,30.10,NNW,348,0.0,0.0,55,0.00,,,0.04,meteohub,2013-01-06 01:22:00,
2013-01-05 20:27:00,34.7,20.7,30.10,SSE,168,0.0,0.0,56,0.00,,,0.04,meteohub,2013-01-06 01:27:00,
2013-01-05 20:32:00,34.7,20.7,30.10,SSE,168,0.0,0.0,56,0.00,,,0.04,meteohub,2013-01-06 01:32:00,
2013-01-05 20:37:00,34.7,20.7,30.10,SSE,168,0.0,0.0,56,0.00,,,0.04,meteohub,2013-01-06 01:37:00,
2013-01-05 20:42:00,34.7,20.7,30.10,SSE,168,0.0,0.0,56,0.00,,,0.04,meteohub,2013-01-06 01:42:00,
2013-01-05 20:47:00,34.9,20.8,30.10,SE,145,4.0,0.0,56,0.00,,,0.04,meteohub,2013-01-06 01:47:00,
2013-01-05 20:52:00,34.9,20.8,30.10,SE,145,0.0,2.0,56,0.00,,,0.04,meteohub,2013-01-06 01:52:00,
2013-01-05 20:57:00,34.3,20.7,30.10,NNE,32,3.0,4.0,57,0.00,,,0.04,meteohub,2013-01-06 01:57:00,
2013-01-05 21:02:00,34.5,20.8,30.10,South,190,0.0,5.0,57,0.00,,,0.04,meteohub,2013-01-06 02:02:00,
2013-01-05 21:07:00,34.5,21.4,30.10,SSE,168,0.0,5.0,58,0.00,,,0.04,meteohub,2013-01-06 02:07:00,
2013-01-05 21:12:00,34.5,21.4,30.07,SSE,168,0.0,5.0,58,0.00,,,0.04,meteohub,2013-01-06 02:12:00,
2013-01-05 21:17:00,34.5,20.8,30.07,SSW,212,0.0,0.0,57,0.00,,,0.04,meteohub,2013-01-06 02:17:00,
2013-01-05 21:22:00,34.5,20.8,30.07,SE,145,2.0,4.0,57,0.00,,,0.04,meteohub,2013-01-06 02:22:00,
2013-01-05 21:27:00,34.5,20.5,30.07,WNW,302,0.0,4.0,56,0.00,,,0.04,meteohub,2013-01-06 02:27:00,
2013-01-05 21:32:00,34.5,20.8,30.07,WSW,258,0.0,4.0,57,0.00,,,0.04,meteohub,2013-01-06 02:32:00,
2013-01-05 21:37:00,34.3,20.7,30.07,ESE,122,4.0,4.0,57,0.00,,,0.04,meteohub,2013-01-06 02:37:00,
2013-01-05 21:47:00,34.3,20.3,30.07,ESE,122,4.0,4.0,56,0.00,,,0.04,meteohub,2013-01-06 02:47:00,
2013-01-05 21:52:00,34.2,19.8,30.07,NNW,348,2.0,4.0,55,0.00,,,0.04,meteohub,2013-01-06 02:52:00,
2013-01-05 21:57:00,34.2,19.8,30.07,ENE,78,3.0,4.0,55,0.00,,,0.04,meteohub,2013-01-06 02:57:00,
2013-01-05 22:02:00,34.2,19.8,30.07,SSW,212,0.0,4.0,55,0.00,,,0.04,meteohub,2013-01-06 03:02:00,
2013-01-05 22:07:00,34.2,19.8,30.07,WSW,258,3.0,3.0,55,0.00,,,0.04,meteohub,2013-01-06 03:07:00,
2013-01-05 22:17:00,33.8,19.8,30.07,East,100,2.0,4.0,56,0.00,,,0.04,meteohub,2013-01-06 03:17:00,
2013-01-05 22:22:00,34.0,20.5,30.07,NNE,32,0.0,4.0,57,0.00,,,0.04,meteohub,2013-01-06 03:22:00,
2013-01-05 22:27:00,34.0,20.5,30.07,NE,55,0.0,4.0,57,0.00,,,0.04,meteohub,2013-01-06 03:27:00,
2013-01-05 22:32:00,34.2,20.1,30.07,ESE,122,0.0,4.0,56,0.00,,,0.04,meteohub,2013-01-06 03:32:00,
2013-01-05 22:37:00,34.0,20.5,30.07,SW,235,0.0,3.0,57,0.00,,,0.04,meteohub,2013-01-06 03:37:00,
2013-01-05 22:42:00,34.0,20.8,30.07,NE,55,3.0,3.0,58,0.00,,,0.04,meteohub,2013-01-06 03:42:00,
2013-01-05 22:47:00,34.0,21.2,30.07,NE,55,0.0,4.0,59,0.00,,,0.04,meteohub,2013-01-06 03:47:00,
2013-01-05 22:52:00,33.8,20.7,30.07,SW,235,0.0,4.0,58,0.00,,,0.04,meteohub,2013-01-06 03:52:00,
2013-01-05 23:02:00,34.0,21.2,30.07,South,190,0.0,0.0,59,0.00,,,0.04,meteohub,2013-01-06 04:02:00,
2013-01-05 23:07:00,34.0,20.8,30.07,SSE,168,5.0,0.0,58,0.00,,,0.04,meteohub,2013-01-06 04:07:00,
2013-01-05 23:12:00,33.8,20.7,30.07,ESE,122,4.0,6.0,58,0.00,,,0.04,meteohub,2013-01-06 04:12:00,
2013-01-05 23:17:00,33.8,20.7,30.07,WNW,302,5.0,7.0,58,0.00,,,0.04,meteohub,2013-01-06 04:17:00,
2013-01-05 23:22:00,33.8,20.7,30.07,SSE,168,4.0,7.0,58,0.00,,,0.04,meteohub,2013-01-06 04:22:00,
2013-01-05 23:27:00,33.8,20.7,30.07,ESE,122,0.0,7.0,58,0.00,,,0.04,meteohub,2013-01-06 04:27:00,
2013-01-05 23:32:00,33.8,20.7,30.07,ESE,122,5.0,6.0,58,0.00,,,0.04,meteohub,2013-01-06 04:32:00,
2013-01-05 23:37:00,33.8,20.7,30.07,East,100,0.0,5.0,58,0.00,,,0.04,meteohub,2013-01-06 04:37:00,
2013-01-05 23:42:00,33.6,20.8,30.07,North,10,5.0,5.0,59,0.00,,,0.04,meteohub,2013-01-06 04:42:00,
2013-01-05 23:47:00,33.6,20.8,30.07,NE,55,3.0,6.0,59,0.00,,,0.04,meteohub,2013-01-06 04:47:00,
2013-01-05 23:52:00,33.6,20.8,30.07,WNW,302,0.0,6.0,59,0.00,,,0.04,meteohub,2013-01-06 04:52:00,
2013-01-05 23:57:00,33.6,20.8,30.07,SSE,168,5.0,6.0,59,0.00,,,0.04,meteohub,2013-01-06 04:57:00,